Change the Weather History Date:

Thursday, September 12, 2013

  Actual Average Record
Temperature  
Mean Temperature 57 °F 60 °F  
Max Temperature 60 °F 74 °F 88 °F (1911)
Min Temperature 54 °F 46 °F 22 °F (1902)
Degree Days  
Heating Degree Days 8 6  
Month to date heating degree days 21 51  
Since 1 July heating degree days 36 107  
Cooling Degree Days 0 1  
Month to date cooling degree days 66 17  
Year to date cooling degree days 519 343  
Growing Degree Days 6 (Base 50)    
Moisture  
Dew Point 55 °F    
Average Humidity 97    
Maximum Humidity 100    
Minimum Humidity 93    
Precipitation  
Precipitation 0.53 in 0.05 in 0.86 in (1912)
Month to date precipitation 2.73 0.63  
Year to date precipitation 11.16 13.08  
Snow  
Snow 0.00 in 0.00 in 2.50 in (1989)
Month to date snowfall 0.0 0.2  
Since 1 July snowfall 0.0 0.2  
Snow Depth 0.00 in    
Sea Level Pressure  
Sea Level Pressure 30.28 in    
Wind  
Wind Speed 11 mph (East)    
Max Wind Speed 23 mph    
Max Gust Speed 31 mph    
Visibility 4 miles    
Events Fog , Rain    
T = Trace of Precipitation, MM = Missing Value Source: NWS Daily Summary

Daily Weather History Graph

Daily Weather History Graph

Search for Another Location

Airport or City:

Trip Planner

Search our weather history database for the weather conditions in past years. The results will help you decide how hot, cold, wet, or windy it might be!

Date:

Astronomy

Sep. 12, 2013 Rise Set
Actual Time 6:37 AM MDT 7:13 PM MDT
Civil Twilight 6:09 AM MDT 7:40 PM MDT
Nautical Twilight 5:36 AM MDT 8:13 PM MDT
Astronomical Twilight 5:02 AM MDT 8:47 PM MDT
Moon 2:10 PM MDT (9/12) No Moon Set
Length of Visible Light 13h 31m
Length of Day
12h 36m
Waxing Crescent, 51% of the Moon is Illuminated
Sep 12
Waxing Crescent
Sep 19
Full
Sep 26
Last Quarter
Oct 4
New
Oct 11
First Quarter

Hourly Weather History & Observations

Time (MDT) Temp. Dew Point Humidity Pressure Visibility Wind Dir Wind Speed Gust Speed Precip Events Conditions
12:02 AM 55.4 °F 53.6 °F 94% 30.36 in 9.0 mi NNE 9.2 mph - N/A   Overcast
12:25 AM 53.6 °F 53.6 °F 100% 30.36 in 9.0 mi NNE 8.1 mph - N/A   Overcast
12:32 AM 55.4 °F 53.6 °F 94% 30.36 in 9.0 mi NNE 8.1 mph - N/A   Overcast
12:42 AM 55.4 °F 53.6 °F 94% 30.36 in 9.0 mi NNE 9.2 mph - N/A   Overcast
12:53 AM 55.0 °F 54.0 °F 96% 30.19 in 9.0 mi NNE 6.9 mph - N/A   Overcast
12:57 AM 55.4 °F 53.6 °F 94% 30.36 in 9.0 mi NE 8.1 mph - N/A   Overcast
1:53 AM 55.0 °F 53.1 °F 93% 30.19 in 9.0 mi ENE 4.6 mph - 0.05 in Rain Light Rain
2:53 AM 55.0 °F 54.0 °F 96% 30.18 in 6.0 mi ENE 5.8 mph - 0.02 in Rain Light Rain
3:53 AM 55.0 °F 54.0 °F 96% 30.17 in 4.0 mi ENE 5.8 mph - 0.02 in Rain Rain
4:09 AM 55.4 °F 53.6 °F 94% 30.35 in 5.0 mi ENE 6.9 mph - 0.02 in Rain Light Rain
4:53 AM 55.0 °F 54.0 °F 96% 30.18 in 6.0 mi NNE 8.1 mph - 0.03 in Rain Light Rain
5:01 AM 55.4 °F 53.6 °F 94% 30.36 in 6.0 mi NE 6.9 mph - 0.00 in   Overcast
5:34 AM 55.4 °F 53.6 °F 94% 30.36 in 5.0 mi NE 5.8 mph - 0.00 in   Overcast
5:49 AM 55.4 °F 53.6 °F 94% 30.35 in 1.8 mi NE 9.2 mph - 0.00 in Rain Light Rain
5:53 AM 55.0 °F 55.0 °F 100% 30.19 in 1.5 mi NE 9.2 mph - 0.01 in Rain Light Rain
6:02 AM 55.4 °F 53.6 °F 94% 30.36 in 0.8 mi NE 9.2 mph - 0.00 in Rain Light Rain
6:53 AM 55.0 °F 54.0 °F 96% 30.21 in 0.8 mi NE 8.1 mph - 0.04 in Rain Light Rain
7:27 AM 55.4 °F 53.6 °F 94% 30.37 in 1.0 mi NE 9.2 mph - 0.01 in Rain Light Rain
7:42 AM 55.4 °F 53.6 °F 94% 30.37 in 0.5 mi NE 9.2 mph - 0.01 in Rain Light Rain
7:53 AM 55.0 °F 55.0 °F 100% 30.22 in 0.5 mi ENE 6.9 mph - 0.01 in Rain Light Rain
8:09 AM 55.4 °F 55.4 °F 100% 30.38 in 0.5 mi ENE 9.2 mph - 0.01 in Fog Fog
8:21 AM 55.4 °F 55.4 °F 100% 30.38 in 0.2 mi ENE 9.2 mph - 0.01 in Fog Fog
8:53 AM 55.0 °F 55.0 °F 100% 30.23 in 0.2 mi NE 6.9 mph - 0.01 in   Mist
9:53 AM 55.9 °F 55.9 °F 100% 30.24 in 0.5 mi ENE 9.2 mph - 0.00 in Rain Light Rain
10:08 AM 55.4 °F 55.4 °F 100% 30.40 in 1.2 mi ENE 9.2 mph - 0.00 in Rain Light Rain
10:53 AM 57.0 °F 55.9 °F 96% 30.23 in 1.0 mi East 13.8 mph - 0.02 in Rain Light Rain
11:53 AM 55.9 °F 55.0 °F 97% 30.23 in 1.2 mi East 13.8 mph 24.2 mph 0.04 in Rain Light Rain
12:51 PM 57.2 °F 57.2 °F 100% 30.37 in 2.0 mi East 10.4 mph 18.4 mph 0.04 in Rain Light Rain
12:53 PM 57.9 °F 57.0 °F 97% 30.21 in 2.0 mi East 11.5 mph - 0.04 in Rain Light Rain
1:10 PM 57.2 °F 55.4 °F 94% 30.37 in 3.0 mi East 15.0 mph 21.9 mph 0.00 in Rain Light Rain
1:36 PM 59.0 °F 55.4 °F 88% 30.36 in 6.0 mi East 12.7 mph 20.7 mph 0.00 in   Overcast
1:53 PM 59.0 °F 55.9 °F 90% 30.19 in 8.0 mi East 12.7 mph - 0.00 in   Overcast
2:53 PM 57.9 °F 55.9 °F 93% 30.18 in 5.0 mi East 13.8 mph 20.7 mph N/A   Overcast
3:01 PM 57.2 °F 57.2 °F 100% 30.35 in 3.0 mi East 18.4 mph 23.0 mph N/A   Overcast
3:08 PM 57.2 °F 57.2 °F 100% 30.35 in 2.5 mi East 15.0 mph 23.0 mph 0.00 in Rain Light Rain
3:24 PM 57.2 °F 57.2 °F 100% 30.34 in 1.5 mi East 13.8 mph 23.0 mph 0.00 in Rain Light Rain
3:37 PM 57.2 °F 55.4 °F 94% 30.34 in 2.5 mi East 11.5 mph 20.7 mph 0.01 in Rain Light Rain
3:46 PM 57.2 °F 55.4 °F 94% 30.34 in 3.0 mi East 11.5 mph - 0.01 in Rain Light Rain
3:51 PM 57.2 °F 55.4 °F 94% 30.33 in 2.5 mi East 10.4 mph - 0.01 in   Overcast
3:53 PM 57.9 °F 55.9 °F 93% 30.17 in 2.5 mi East 11.5 mph - 0.01 in   Overcast
4:09 PM 57.2 °F 55.4 °F 94% 30.33 in 5.0 mi East 12.7 mph - 0.00 in Rain Light Rain
4:43 PM 59.0 °F 57.2 °F 94% 30.33 in 9.0 mi East 11.5 mph - 0.00 in   Overcast
4:50 PM 59.0 °F 57.2 °F 94% 30.33 in 7.0 mi East 12.7 mph - 0.00 in   Overcast
4:53 PM 59.0 °F 57.0 °F 93% 30.16 in 5.0 mi East 11.5 mph - 0.00 in Rain Light Rain
5:10 PM 59.0 °F 57.2 °F 94% 30.32 in 2.5 mi East 15.0 mph - 0.00 in Rain Light Rain
5:23 PM 59.0 °F 57.2 °F 94% 30.32 in 2.5 mi East 10.4 mph - 0.01 in Rain Light Rain
5:47 PM 59.0 °F 57.2 °F 94% 30.32 in 2.5 mi ESE 10.4 mph - 0.01 in Rain Light Rain
5:53 PM 59.0 °F 57.0 °F 93% 30.15 in 2.5 mi ESE 10.4 mph - 0.02 in Rain Light Rain
5:59 PM 59.0 °F 57.2 °F 94% 30.32 in 2.5 mi ESE 5.8 mph - 0.00 in Rain Light Rain
6:14 PM 59.0 °F 57.2 °F 94% 30.32 in 1.8 mi East 8.1 mph - 0.02 in Rain Light Rain
6:21 PM 59.0 °F 57.2 °F 94% 30.32 in 2.5 mi ESE 12.7 mph 20.7 mph 0.02 in Rain Light Rain
6:32 PM 55.4 °F 53.6 °F 94% 30.33 in 1.2 mi East 18.4 mph 28.8 mph 0.04 in Rain Heavy Rain
6:41 PM 55.4 °F 55.4 °F 100% 30.32 in 1.0 mi East 13.8 mph 24.2 mph 0.08 in Rain Heavy Rain
6:53 PM 55.0 °F 55.0 °F 100% 30.17 in 1.8 mi East 19.6 mph 26.5 mph 0.15 in Rain Light Rain
6:57 PM 55.4 °F 53.6 °F 94% 30.32 in 3.0 mi East 18.4 mph 26.5 mph 0.00 in Rain Light Rain
7:13 PM 55.4 °F 53.6 °F 94% 30.32 in 6.0 mi ESE 13.8 mph 24.2 mph 0.01 in Rain Light Rain
7:21 PM 53.6 °F 53.6 °F 100% 30.32 in 5.0 mi East 15.0 mph 21.9 mph 0.01 in Rain Light Rain
7:31 PM 55.4 °F 53.6 °F 94% 30.32 in 10.0 mi ESE 16.1 mph - 0.01 in   Overcast
7:53 PM 55.9 °F 54.0 °F 93% 30.17 in 8.0 mi ESE 13.8 mph - 0.01 in   Overcast
8:53 PM 55.0 °F 54.0 °F 96% 30.18 in 5.0 mi SE 11.5 mph 18.4 mph 0.00 in Rain Light Rain
9:10 PM 55.4 °F 53.6 °F 94% 30.33 in 10.0 mi ESE 12.7 mph 21.9 mph 0.00 in   Overcast
9:32 PM 55.4 °F 53.6 °F 94% 30.33 in 9.0 mi SE 10.4 mph - 0.00 in   Overcast
9:48 PM 53.6 °F 53.6 °F 100% 30.33 in 4.0 mi ESE 11.5 mph - 0.00 in Rain Light Rain
9:53 PM 54.0 °F 53.1 °F 97% 30.17 in 4.0 mi ESE 13.8 mph - 0.00 in Rain Light Rain
10:14 PM 55.4 °F 53.6 °F 94% 30.32 in 3.0 mi ESE 10.4 mph - 0.01 in Rain Light Rain
10:27 PM 55.4 °F 53.6 °F 94% 30.32 in 2.0 mi East 11.5 mph - 0.01 in Rain Light Rain
10:34 PM 55.4 °F 53.6 °F 94% 30.31 in 1.8 mi East 10.4 mph - 0.02 in Rain Light Rain
10:53 PM 55.0 °F 54.0 °F 96% 30.15 in 1.8 mi East 10.4 mph - 0.02 in Rain Light Rain
11:19 PM 53.6 °F 53.6 °F 100% 30.31 in 2.0 mi East 9.2 mph - 0.01 in   Overcast
11:26 PM 53.6 °F 53.6 °F 100% 30.30 in 1.8 mi East 10.4 mph - 0.01 in Rain Light Rain
11:40 PM 53.6 °F 53.6 °F 100% 30.30 in 2.0 mi ESE 10.4 mph - 0.02 in   Overcast
11:53 PM 54.0 °F 54.0 °F 100% 30.14 in 2.0 mi ESE 6.9 mph - 0.02 in   Overcast